{"data":{"norad_id":29601,"epoch":"2026-09-19T03:39:26.293824Z","epoch_age_seconds":134537,"freshness":"FRESH","line1":"1 29601U 06052A   26262.15238766  .00000007  00000+0  00000+0 0  9992","line2":"2 29601  54.9225 210.2844 0085633  91.1420 269.8263  2.00563302145298","mean_motion":2.00563302,"eccentricity":0.0085633,"inclination_deg":54.9225,"raan_deg":210.2844,"arg_perigee_deg":91.142,"mean_anomaly_deg":269.8263,"bstar":0,"rev_number":14529,"period_min":717.97780832308,"perigee_km":19954.793025079,"apogee_km":20409.681934646,"semimajor_km":26560.374479862,"source":"CELESTRAK","updated_at":"2026-09-20T09:00:46.085765Z"}}